NOAA 16 DEB

Satellite information

Favourite Embed

Satellite Type and Status

DEBRISIN ORBIT

Key statistics

Satellite NOAA 16 DEB at a glance.

Uptime

9054

Days in orbit

Revolutions

≈ 14.2

Per day

Orbit

SSO

Sun Synchronous Orbit

Inclination

98.6

Latest

Satellite identification and parameters

Extended collection of information and parameters for NOAA 16 DEB.

Object identification

Identified? True

Debris? True

Object name: NOAA 16 DEB

International designator: 2000-055JX

Object number (NORAD): 41378

Object ID (CCSDS): 41378

Country: UNITED STATES OF AMERICA (US)

Current information (Y/N): Y

RCS size: SMALL

Orbital parameters

Period: 101.609 minutes

Inclination: 98.6466 deg

SMA: 7212.971 km

Apoapsis: 866.924 km

Periapsis: 802.748 km

RAAN: 205.0481 deg

Eccentricy: 0.0044486

Argument of periapsis: 61.3444 deg

Mean anomaly: 299.2194 deg

Mean motion: 14.1720114 rev/day

Mean motion (dot): 0.00002346 rev/day2

B* drag term: 0.0011725 1/REarth

Two-line elements (TLE)

Creation date: July 5, 2025, 4:36 a.m.

Reference frame: TEME

Reference center: EARTH

Epoch: July 4, 2025, 9:53 p.m. UTC

TLE line 0: 0 NOAA 16 DEB

TLE line 1: 1 41378U 00055JX 25185.91247518 .00002346 00000-0 11725-2 0 9994

TLE line 2: 2 41378 98.6466 205.0481 0044486 61.3444 299.2194 14.17201140487110

Live tracking on map

Real-time ground track for satellite NOAA 16 DEB.

In-orbit conjunctions

A list of the most updated potential collisions computed for object NOAA 16 DEB.

Target Orbit TCA Probability of collision Miss distance Type
SPOT 3 SSO 2025-05-10 19:40:19 0.0005182556 563.0 (m) PAYLOAD
COSMOS 2263 LEO 2024-09-12 11:34:25 0.000461174 95.0 (m) PAYLOAD

Associated space launch

The NOAA K, L and M POES satellites begin the fifth generation of improved environmental monitoring in support of NOAA missions. The instrument payload has significant improvements and additions/deletions. The instrument changes have effected the spacecraft subsystems and data formats.

NOAA 16 DEB was lifted into orbit during the mission ‘Titan II SLV | NOAA 16’, on board a Titan II SLV space rocket.

The launch took place on Sept. 21, 2000, 10:22 a.m. from Space Launch Complex 4W.

For more information about the launch, click the button.

Launch to space Titan II SLV | NOAA 16
Titan II SLV | NOAA 16

Agency: N/A

Status: Launch Successful

Launch date: Sept. 21, 2000, 10:22 a.m. UTC

Rocket: Titan II SLV

Launch pad: Space Launch Complex 4W

Location: Vandenberg SFB, CA, USA

...

Latest news about this satellite

There are no fresh news available about this satellite. Check back as we update our databases every day.


Newsletter sign-up

Weekly statistics, charts and insights to help you stay on top of the space industry.